Dewpoint
55 54 54 55 55 56 56 55 54 54 55 56 56 56 56 56 56 56 56 56 56 53 55 55 52 51 45 42 43 47 53 55 54 52 49 47 44 42 34 31 35 31 28 29 30 30 31
54 53 54 54 54 55 56 55 55 54 54 55 56 56 56 56 56 56 56 56 57 52 54 55 49 50 42 40 49 49 49 52 52 49 50 46 43 40 37 32 29 30 29 28 28 28 29
53 54 54 54 54 55 56 55 54 53 53 54 55 56 56 56 56 56 56 56 56 55 53 54 48 45 45 45 50 50 49 51 51 49 48 50 44 40 36 30 29 30 27 28 29 27 28
53 53 53 54 54 54 55 55 54 53 54 54 55 55 55 55 56 56 56 55 56 56 53 54 48 45 42 48 51 47 50 47 50 48 48 48 45 40 31 30 28 26 27 25 27 28 26
53 52 53 54 54 55 55 55 55 54 54 54 55 55 55 55 56 56 55 54 53 54 54 50 44 43 41 50 43 44 44 43 47 48 48 45 39 32 30 29 25 26 25 23 25 27 27
52 52 52 53 53 54 55 55 55 55 55 54 54 54 55 55 55 56 52 52 52 49 43 42 41 41 43 41 44 43 44 45 44 46 45 42 32 29 28 28 20 20 25 23 24 26 27
52 52 53 53 53 54 55 55 55 54 54 54 54 54 54 55 56 54 47 40 37 35 37 35 38 40 43 43 45 45 47 47 44 42 39 32 30 30 28 26 24 23 22 23 24 25 26
52 53 53 53 54 54 55 54 54 54 54 54 54 54 54 54 54 50 43 35 39 42 31 33 35 37 40 44 39 42 44 40 40 38 35 29 29 29 28 25 24 24 24 24 24 23 23
52 52 53 53 54 55 55 55 54 54 53 53 54 54 54 53 50 47 41 42 46 44 31 28 33 34 36 40 36 39 41 39 33 30 27 28 29 30 25 24 23 23 22 23 23 22 20
52 52 53 53 54 55 55 55 54 55 54 54 54 53 54 50 45 43 40 44 46 45 36 27 29 33 33 35 31 35 39 34 31 28 29 29 29 26 26 23 23 21 25 22 23 22 25
52 53 53 54 54 54 55 55 55 55 55 54 53 52 52 48 41 39 44 46 44 38 29 27 29 34 33 30 31 32 36 33 29 29 29 29 30 27 27 27 28 25 23 21 20 22 32
52 53 53 54 54 54 54 55 55 55 54 55 53 52 50 47 45 45 46 43 38 39 28 26 30 31 29 30 31 32 33 32 30 28 29 30 33 33 30 28 27 26 19 17 17 18 33
52 52 53 54 54 54 55 55 55 55 54 54 51 51 47 44 39 46 43 39 40 33 26 27 29 30 27 27 27 29 30 30 28 35 33 26 28 32 34 25 27 20 16 32 27 31 19
50 52 53 53 54 54 55 55 55 55 55 54 50 47 45 44 46 44 41 35 29 25 25 29 30 26 26 28 26 29 27 29 31 26 25 31 26 31 34 31 25 25 20 32 20 17 17
50 53 53 53 53 54 54 55 55 54 54 53 48 45 44 45 46 41 35 37 33 25 31 31 27 23 24 27 25 25 29 29 29 30 20 23 24 30 33 31 30 25 25 23 26 23 25
50 51 53 53 53 53 54 54 54 54 54 50 44 42 43 45 44 39 38 31 30 30 34 31 25 26 22 25 24 25 25 30 30 31 30 21 21 29 31 30 30 26 26 23 25 25 15
49 52 53 53 54 54 54 54 54 54 54 49 41 37 41 44 42 35 38 31 31 33 34 31 29 26 25 24 26 26 25 30 32 32 30 28 19 24 27 23 25 25 24 22 23 24 17
50 52 53 54 54 54 54 54 54 54 52 45 42 45 43 41 38 35 32 31 36 33 34 32 31 29 26 25 24 27 28 31 34 33 26 30 21 21 20 29 31 27 25 23 21 19 20
51 52 53 53 53 53 53 53 54 54 51 43 36 40 42 38 36 32 33 32 33 32 31 31 29 29 27 24 19 27 28 34 34 32 29 28 23 22 19 23 29 29 27 24 23 25 21
52 53 53 52 52 53 53 53 53 53 50 40 35 41 36 36 33 29 28 29 27 34 31 31 29 29 25 22 24 22 23 32 35 34 34 29 24 19 16 15 25 25 28 26 23 26 16
53 53 53 53 52 53 52 52 53 52 49 40 36 36 34 35 31 29 28 28 27 27 31 30 27 27 25 19 20 20 27 26 31 34 30 20 12 23 17 19 22 23 24 28 25 23 17
54 54 54 53 52 52 52 52 53 52 47 40 34 32 33 31 32 30 30 28 26 27 27 28 25 27 27 22 21 18 23 24 22 31 28 27 19 22 16 21 21 19 18 20 25 26 27
55 54 54 53 52 52 51 51 52 51 47 41 39 38 36 35 32 30 29 26 27 29 31 30 28 27 26 27 29 29 28 28 29 29 27 26 23 22 19 21 21 19 19 21 21 22 21
55 54 54 54 53 52 51 50 52 50 46 43 41 40 35 24 31 29 29 27 28 30 28 30 30 28 31 34 32 31 30 30 30 30 30 26 24 26 26 22 22 20 19 21 21 21 22
53 55 55 55 54 52 52 51 51 51 47 45 42 40 37 29 30 31 31 29 30 30 30 29 31 32 34 29 27 23 22 23 27 29 29 29 26 25 25 21 20 18 19 19 19 17 21
50 50 51 53 54 54 53 51 50 52 47 46 44 42 40 34 26 32 31 30 30 29 29 28 34 34 31 29 26 23 18 19 19 25 29 28 28 25 22 21 15 18 20 22 21 18 22
47 48 49 49 50 51 53 53 52 51 50 47 46 43 42 39 36 32 31 30 31 31 30 31 31 32 31 28 26 24 23 21 18 20 25 26 27 25 23 22 21 22 24 23 18 20 24
46 46 47 47 48 48 49 51 53 52 51 49 46 44 43 41 39 38 34 32 33 32 30 31 32 32 29 27 26 26 24 23 20 21 24 23 24 24 24 23 22 25 24 21 25 25 26
45 45 45 45 46 47 47 49 50 50 52 50 47 44 44 42 39 40 41 38 35 35 34 33 32 32 32 31 29 28 26 26 24 20 25 22 24 23 25 23 27 27 26 26 28 29 28
Lifted_Index
10 10 9 9 8 8 8 8 9 9 9 8 8 8 8 7 7 6 6 4 3 4 4 3 2 2 2 1 1 1 1 -0 -0 -1 -0 -0 0 0 1 2 3 3 4 5 5 5 4
10 10 9 9 8 8 8 8 9 9 9 8 8 8 8 7 7 6 5 4 3 4 4 3 3 2 1 1 1 1 0 -0 -0 -0 0 0 0 0 1 2 3 3 3 5 5 5 4
10 10 9 9 8 8 8 8 9 9 9 8 8 8 8 7 7 6 5 4 3 3 4 3 3 2 1 1 0 0 0 0 -0 0 1 1 1 1 1 2 2 2 3 4 4 4 4
10 10 10 9 9 8 8 8 8 9 8 8 8 8 8 7 7 6 6 5 4 3 4 3 3 2 1 1 1 0 0 0 0 0 1 1 1 1 1 1 2 2 2 3 4 4 4
10 10 10 9 9 8 8 8 8 8 8 8 8 8 8 7 7 6 6 6 5 4 4 4 3 2 2 2 1 1 0 0 0 1 1 1 1 1 1 1 1 1 2 3 4 4 4
11 10 10 10 9 8 8 8 8 8 8 8 8 8 8 8 7 7 7 7 5 4 4 4 3 3 2 2 2 1 1 1 1 1 1 1 1 1 1 1 1 1 2 3 4 4 4
11 11 10 10 9 9 8 8 8 8 8 8 8 8 8 8 8 8 8 7 6 5 4 4 4 3 3 2 2 1 1 1 1 1 1 1 1 1 1 1 1 1 2 4 4 4 4
11 11 10 10 9 9 8 8 8 8 8 8 8 8 8 8 9 8 8 7 7 6 5 4 4 3 3 3 2 1 1 1 1 1 1 1 1 0 1 1 1 1 2 3 4 4 4
11 11 10 10 9 9 8 8 8 8 9 9 8 8 9 9 9 9 9 8 8 6 5 4 4 3 3 3 2 2 2 2 1 1 1 1 0 0 1 1 1 2 2 3 4 4 4
11 11 10 10 10 9 8 8 8 8 8 9 8 8 9 10 10 9 9 9 8 6 5 4 4 4 3 3 3 2 2 2 1 1 1 1 0 0 1 1 2 2 2 3 4 4 4
10 10 10 10 10 9 9 8 8 8 8 9 9 9 9 10 10 10 10 10 8 6 4 4 4 4 3 3 2 2 2 2 1 1 1 1 0 1 1 2 2 3 3 4 4 4 3
10 10 10 10 10 9 9 8 8 8 9 9 9 9 9 10 10 11 10 9 7 5 4 4 4 4 3 3 2 2 2 2 2 1 1 1 1 1 2 2 3 4 4 4 4 3 2
10 10 10 10 10 9 9 9 8 9 9 9 10 10 9 9 10 10 10 8 6 5 5 5 4 4 3 3 2 2 2 2 1 1 1 1 2 2 3 3 4 4 4 3 2 1 1
11 10 10 10 10 9 9 9 9 9 9 10 10 10 9 9 9 10 9 7 5 5 6 6 5 4 4 4 3 3 3 2 2 2 2 2 3 3 4 4 4 4 4 2 1 1 1
11 11 10 10 10 10 10 9 9 9 10 10 10 10 9 10 10 9 8 6 6 6 7 6 5 5 4 4 4 3 3 3 3 3 3 3 3 4 4 5 5 4 4 3 2 1 1
11 11 10 10 10 10 10 10 10 10 10 10 10 9 9 10 10 9 7 6 7 8 8 7 6 5 4 4 4 4 4 4 4 4 4 4 4 4 5 5 5 5 4 4 2 1 1
11 11 11 10 10 10 10 10 10 10 11 11 10 9 9 10 9 8 7 7 8 9 8 8 7 6 5 5 4 4 4 4 5 5 4 4 4 4 5 5 5 5 5 4 3 2 1
11 11 10 10 10 10 10 10 10 10 11 11 10 8 9 9 8 7 7 7 8 9 9 8 8 7 7 6 5 5 5 5 6 5 5 5 4 3 4 5 6 6 6 5 4 3 2
10 10 10 10 10 10 10 10 10 11 11 11 9 8 9 9 8 7 7 7 8 8 8 8 8 8 8 7 6 6 6 7 7 6 6 5 4 3 3 4 5 6 6 6 5 4 3
9 10 10 10 10 10 10 10 10 11 11 11 9 8 8 8 8 7 7 7 7 7 8 8 8 8 7 7 7 7 7 8 8 8 8 7 5 3 3 4 5 5 5 5 5 4 3
9 9 9 9 9 9 10 10 10 11 11 10 8 7 8 8 7 7 7 7 6 7 7 7 7 7 7 6 6 6 7 8 9 9 9 8 6 5 5 5 5 5 5 5 5 4 4
8 8 8 8 8 8 9 10 10 11 11 10 8 8 8 7 7 7 7 6 6 7 7 7 7 7 7 7 7 7 7 7 8 8 8 7 6 5 5 6 5 5 5 5 5 5 5
7 7 7 7 7 8 8 9 10 11 11 10 10 9 8 7 6 6 6 7 7 8 8 8 8 8 8 8 8 8 8 8 8 8 8 7 6 5 4 4 4 4 5 5 6 6 6
7 7 7 7 7 8 8 9 9 10 11 11 11 11 8 6 5 6 6 7 8 9 9 9 9 9 9 9 8 8 8 8 8 8 8 7 7 5 4 3 4 5 6 6 6 7 7
7 7 7 7 7 8 8 8 9 10 10 11 11 11 9 7 6 7 7 8 8 9 9 9 9 9 9 9 7 6 6 6 7 7 8 8 7 6 4 3 4 5 6 7 7 7 8
7 7 7 7 7 8 8 8 8 9 9 10 10 11 10 8 7 8 8 8 8 9 9 9 10 10 9 8 6 5 4 5 5 6 7 7 7 6 5 4 4 6 7 8 7 7 8
9 8 8 8 8 8 8 8 8 9 9 9 9 10 9 8 8 8 8 8 9 9 9 9 10 9 9 7 6 5 5 5 5 5 6 6 6 5 5 4 5 6 8 8 7 7 7
11 11 10 10 10 9 9 9 8 8 8 8 8 9 8 8 8 8 8 8 9 9 9 9 9 9 8 7 7 6 6 6 6 6 5 5 5 5 5 5 6 7 8 8 7 7 7
13 13 13 12 12 11 10 9 9 8 8 8 8 9 9 7 7 8 8 8 9 9 9 9 9 9 8 8 8 8 7 7 6 6 6 6 6 6 6 5 6 7 8 8 8 8 7